Location: Berlin
(39.7912°N, 74.9291°W)
Time: 05:29:55
(UTC+00:00)

Daily predictions for brighter satellites

Satellite Brightness Start Highest point End
(mag) Time Altitude Azimuth Time Altitude Azimuth Time Altitude Azimuth
RESURS DK-1 3.5 00:03:02 10° NW 00:05:59 40° WNW 00:05:59 40° WNW
Okean 2 Rocket 3.7 00:03:27 10° SSW 00:07:46 54° W 00:08:00 53° WNW
Nadezhda 4 Rocket 4.2 00:04:10 10° NNW 00:10:25 69° W 00:16:34 10° S
COSMOS 2406 4.5 00:05:06 10° NNW 00:07:53 28° N 00:07:53 28° N
ATLAS 2AS CENTAUR R/B 4.3 00:07:50 10° NNW 00:10:49 19° NNE 00:10:49 19° NNE
SJ 16-02 2.4 00:11:37 10° SW 00:15:04 42° W 00:15:04 42° W
ISS -0.7 00:13:24 10° WNW 00:14:17 14° WNW 00:14:17 14° WNW
ATLAS 2A CENTAUR R/B 4.5 00:10:25 10° SW 00:16:33 19° SSW 00:17:16 19° S
Cosmos 2195 Rocket 4.5 00:17:57 10° N 00:24:16 82° W 00:25:05 68° SSW
ATLAS 5 CENTAUR R/B 4.2 00:21:34 10° WNW 00:25:26 23° WSW 00:29:52 10° SSW
USA 281 4.3 01:07:16 38° NW 01:07:16 38° NW 01:11:12 10° NNW
CZ-3 R/B 4.5 07:34:45 38° S 07:36:22 38° S 07:46:45 10° ESE
Cosmos 2237 Rocket 3.9 08:43:08 25° NNE 08:43:08 25° NNE 08:45:23 10° NNE
Cosmos 2278 Rocket 3.7 08:43:28 28° SE 08:43:28 28° SE 08:46:05 10° SSE
SJ 16-02 4.2 08:41:28 12° NE 08:42:17 13° ENE 08:44:18 10° E
Cosmos 1943 Rocket 3.9 08:46:29 23° SE 08:46:29 23° SE 08:48:30 10° SSE
USA 267 3.2 08:47:14 10° NE 08:53:32 80° E 08:53:32 80° E
ATLAS 3B R/B 4.2 08:55:32 10° S 09:02:09 38° ESE 09:09:08 10° NE
Meteor 2-16 Rocket 4.4 09:03:06 77° ESE 09:03:15 77° E 09:09:23 10° N
Atlas 2A Centaur Rocket 4.5 09:18:28 16° S 09:18:28 16° S 09:20:09 10° SSE
Cosmos 2292 Rocket 4.1 09:20:13 73° NNE 09:20:13 73° NNE 09:25:45 10° N
ACS3 Solar Sail 3.9 09:20:14 10° N 09:20:28 11° N 09:20:28 11° N
USA 234 4.1 09:22:18 10° E 09:28:23 42° NNE 09:31:50 24° NNW
Cosmos 1864 Rocket 4.4 09:30:10 38° NNW 09:32:40 65° W 09:38:54 10° S
Cosmos 1420 Rocket 4.4 09:38:44 47° NNW 09:38:44 47° NNW 09:42:52 10° N
Cosmos 1624 Rocket 3.9 09:34:26 21° SSW 09:37:58 84° ESE 09:43:10 10° NNE
Cosmos 2061 Rocket 4.0 09:33:19 10° N 09:39:32 78° E 09:45:43 10° S
Cosmos 2251 Rocket 3.4 09:38:22 39° NNW 09:40:28 89° WSW 09:45:49 10° SSE
SL-16 R/B 2.4 09:37:34 10° SSW 09:43:12 71° ESE 09:48:52 10° NNE
PAYLOAD A 4.1 09:40:55 10° N 09:45:54 53° WNW 09:45:54 53° WNW
Cosmos 1725 Rocket 4.0 09:40:51 10° NNW 09:47:00 55° W 09:53:05 10° SSW
Cosmos 2233 Rocket 3.9 09:42:43 10° N 09:49:02 80° W 09:55:15 10° S
BREEZE-M DEB (TANK) 2.4 09:54:02 47° SE 09:54:02 47° SE 09:56:48 10° ENE
CZ-2C R/B 3.9 09:56:10 10° N 09:58:22 22° NNW 09:58:22 22° NNW
Cosmos 2346 Rocket 4.3 09:55:18 10° S 10:01:26 79° W 10:07:33 10° N
SJ-11-01 4.1 10:00:06 10° N 10:04:47 71° WNW 10:09:27 10° SSW
Cosmos 1190 Rocket 4.2 10:15:29 21° NW 10:18:44 46° WSW 10:23:40 10° S
SKYMED 2 3.5 10:15:19 10° SSE 10:19:39 89° W 10:24:01 10° NNW
Aureole 3 4.2 10:13:57 10° SSW 10:19:53 54° W 10:24:55 10° N
SJ 16-02 1.3 10:18:05 21° NNW 10:20:47 56° WSW 10:24:56 10° S
Cosmos 676 Rocket 3.9 10:16:00 10° NNW 10:21:13 76° WSW 10:26:21 10° S
COSMO-SKYMED 1 2.8 10:18:21 10° SSE 10:22:26 67° ENE 10:26:32 10° N
Cosmos 2278 Rocket 3.8 10:25:22 15° WSW 10:25:22 15° WSW 10:27:17 10° SW
Cosmos 2237 Rocket 3.7 10:25:00 17° NW 10:25:00 17° NW 10:27:58 10° N
Cosmos 1943 Rocket 4.0 10:28:04 12° WSW 10:28:04 12° WSW 10:28:46 10° SW
Cosmos 2056 Rocket 4.1 10:21:58 10° SW 10:26:53 35° WNW 10:31:48 10° N
Cosmos 2297 4.1 10:25:43 10° NNW 10:31:20 66° ENE 10:36:55 10° SSE
USA 229 DEB 3.4 10:25:47 10° SW 10:31:32 62° NW 10:38:00 10° NNE
USA 229 3.4 10:26:01 10° SW 10:31:45 63° NW 10:38:13 10° NNE
Cosmos 1025 Rocket 3.7 10:28:13 10° S 10:32:28 58° E 10:36:45 10° NNE
Cosmos 1954 Rocket 4.3 10:28:36 13° NW 10:32:52 42° WSW 10:37:41 10° S
Cosmos 1943 3.6 10:28:21 10° S 10:33:53 65° ESE 10:39:26 10° NNE
USA 267 4.0 10:30:37 10° NE 10:36:23 35° NNW 10:40:54 16° W
Cosmos 2369 Rocket 2.4 10:30:42 10° NNW 10:36:24 75° ENE 10:42:06 10° SSE
Cosmos 1674 Rocket 3.5 10:33:46 10° S 10:38:11 83° W 10:42:37 10° N
Lacrosse 5 rocket 3.4 10:39:21 10° N 10:41:04 13° NNE 10:42:45 10° ENE
IRS-1D 3.8 10:37:02 10° N 10:41:36 39° WNW 10:46:09 10° SW
Cosmos 1484 Rocket 2.6 10:39:43 10° NNE 10:43:16 82° ESE 10:46:46 10° S
SWARM A 4.2 10:40:46 10° SSW 10:44:00 55° W 10:47:16 10° N
Cosmos 1400 Rocket 2.5 10:40:26 10° N 10:44:07 85° W 10:47:44 10° S
Helios 1A Rocket 2.9 10:46:10 10° S 10:49:21 38° W 10:52:31 10° NNW
Cosmos 1869 4.2 10:47:38 14° NW 10:49:31 22° W 10:52:15 10° SW
Cosmos 2221 Rocket 3.7 10:45:04 10° S 10:49:35 83° E 10:54:08 10° N
Lacrosse 4 Rocket 3.9 10:47:58 10° NNE 10:50:11 14° NE 10:52:23 10° E
Cosmos 371 Rocket 3.9 10:45:55 10° NW 10:50:15 34° W 10:54:35 10° SSW
ATLAS 3B R/B 3.2 10:45:27 10° SW 10:52:42 51° NW 11:00:22 10° NNE
Cosmos 968 Rocket 3.5 10:47:45 10° NNW 10:53:01 81° WSW 10:58:15 10° SSE
Cosmos 1812 3.2 10:53:55 12° NW 10:55:55 22° W 10:58:14 10° SW
Cosmos 1741 Rocket 4.2 10:51:48 10° NNW 10:57:09 81° ENE 11:02:26 10° SSE
CENTAUR R/B 3.5 10:50:26 10° NNW 10:59:05 88° ENE 11:08:37 10° SSE
Cosmos 2151 Rocket 3.6 10:55:36 10° NNW 11:00:01 60° W 11:04:23 10° S
Cosmos 1110 Rocket 4.3 10:57:18 10° SW 11:02:20 45° WNW 11:07:25 10° N
Cosmos 1378 Rocket 4.4 11:02:13 10° SW 11:05:52 27° WNW 11:09:32 10° NNW
Cosmos 1302 Rocket 4.2 11:00:49 10° SSW 11:05:58 78° ESE 11:11:09 10° NNE
Sich 1 Rocket 3.6 11:03:05 10° N 11:07:38 80° W 11:12:05 10° S
USA 234 3.4 11:04:42 10° SSE 11:11:10 63° SW 11:17:41 10° NW
Thor Agena Rocket 3.7 11:06:55 10° NNE 11:12:08 81° ESE 11:17:14 10° SSW
Cosmos 1818 3.7 11:08:53 10° SSW 11:14:18 87° ESE 11:19:46 10° NNE
Okean 1 Rocket 3.0 11:12:46 10° NNW 11:17:02 62° W 11:21:15 10° S
Tsikada Rocket 4.3 11:10:59 10° S 11:17:16 78° E 11:23:40 10° N
Cosmos 332 Rocket 3.8 11:14:28 10° NNW 11:19:14 68° WSW 11:23:56 10° S
CZ-3 R/B 3.0 11:10:25 10° WSW 11:20:03 32° SSW 11:24:26 10° SE
